[[{"header":{"parameterUnit":"m.s-1","parameterCategory":1,"la1":30.2991,"la2":30.254,"lo1":-89.0895,"lo2":-89.0444,"dy":0.0017,"dx":0.0017,"nx":28,"ny":28,"refTime":"2024-07-30T03:00:00:Z","depth":0,"parameterNumber":2,"parameterNumberName":"U-component_of_WINDS"},"data":[0,0,0,0,0,0,0,0,0,0,0,0,0,0,0,0,0,0,0,0,0,0,0,0,0,0,0,0,0,0,0,0,0,0,0,0,0,0,0,0,0,0,0,0,0,0,0,0,0,0,0,0,0,0,0,0,0,0,1.9773,1.9774,0,1.9869,1.987,1.9871,1.9865,1.9864,1.9863,1.9861,1.9961,1.9965,1.9969,0,0,0,0,0,0,0,0,0,0,0,0,0,1.9586,1.959,1.9773,1.9774,1.9775,1.9868,1.987,1.9871,1.9866,1.9864,1.9862,1.9861,1.996,1.9964,1.9969,0,0,0,0,0,0,0,0,0,0,0,0,0,1.9673,1.9591,1.9773,1.9784,1.9786,1.9868,1.987,1.9871,1.9866,1.9864,1.9862,1.986,1.9958,1.9964,1.997,2.0048,0,0,1.9988,1.999,0,0,0,0,0,0,0,0,1.9668,1.968,1.9781,1.9783,1.9785,1.9853,1.9841,1.9931,1.9866,1.9836,1.9861,1.9859,1.9927,1.9935,1.9958,2.0053,2.0057,1.9988,1.9992,1.9995,1.9996,0,0,0,0,0,0,0,1.9662,1.9676,1.9811,1.9782,1.9785,1.9784,1.9794,1.9858,1.9892,1.9838,1.9838,1.9849,1.9928,1.9952,1.996,2.0058,1.9988,1.9993,1.9997,1.9999,2.0221,2.0223,0,0,0,0,0,0,1.9654,1.9671,1.9808,1.9814,1.9721,1.9789,1.9801,1.9833,1.9891,1.9898,1.9851,1.9849,1.9943,1.9953,1.9964,2.0057,1.9994,2.0,2.0003,2.0218,2.0221,2.0224,0,0,0,0,0,0,1.965,1.9666,1.9804,1.9742,1.976,1.9795,1.9832,1.9836,1.9861,1.9901,1.9907,1.9869,1.9942,1.9955,2.0026,2.0061,2.0003,2.0008,2.0216,2.0219,2.0222,2.0246,0,0,0,0,0,0,1.9644,1.9665,1.9695,1.9743,1.9763,1.9865,1.9834,1.984,1.9871,1.9869,1.992,1.9926,1.9941,2.0018,2.0032,2.0068,2.0013,2.0213,2.0217,2.0221,2.0242,2.025,2.0256,0,0,0,0,0,1.9638,1.9698,1.9696,1.9713,1.9801,1.9867,1.9879,1.9894,1.9874,1.9904,1.9929,1.9925,2.0055,2.0025,2.0042,2.0079,2.0211,2.0216,2.0221,2.0239,2.0248,2.0256,0,0,0,0,0,0,1.9653,1.9705,1.9703,1.9781,1.9819,1.9866,1.9904,1.9904,1.9949,1.9945,1.9963,1.9975,2.0046,2.007,2.0036,2.0157,2.013,2.0139,2.0138,2.0147,2.0154,2.0146,2.0018,0,0,0,0,0,1.9666,1.9715,1.9757,1.9822,1.9841,1.987,1.9899,1.9907,1.9948,1.9965,1.9996,2.0036,2.0086,2.0118,2.0167,2.0247,2.0257,2.0281,2.0288,2.0293,2.03,2.0342,2.0353,2.0241,2.0241,2.0241,0,0,1.9692,1.9726,1.9756,1.9826,1.9857,1.9906,1.9883,1.9938,1.9975,1.9973,2.0041,2.0066,2.0112,2.0187,2.0222,2.021,2.0333,2.03,2.0304,2.0308,2.0348,2.0359,2.0368,2.0244,2.0244,2.0243,0,0,1.9765,1.9796,1.9852,1.9884,1.9931,1.9949,1.9963,2.0009,2.0025,2.0094,2.0093,2.0138,2.0224,2.0256,2.0284,2.0369,2.0365,2.0384,2.042,2.0461,2.047,2.0477,2.0506,2.0516,2.0391,2.0391,2.0391,0,1.9791,1.9866,1.9882,1.9936,1.9966,1.9966,2.0023,2.0053,2.0114,2.0134,2.012,2.0226,2.0258,2.034,2.036,2.0383,2.0398,2.0377,2.0467,2.0475,2.0483,2.051,2.0521,2.0393,2.0393,2.0393,2.0392,0,1.9895,1.9947,1.9987,2.0044,2.0079,2.0135,2.0158,2.0192,2.0198,2.0218,2.0287,2.0325,2.038,2.0401,2.0407,2.0483,2.0474,2.0463,2.0436,2.0495,2.052,2.0531,2.0396,2.0395,2.0394,2.0394,0,0,1.9979,2.0044,2.0058,2.0083,2.0135,2.0176,2.0231,2.0284,2.0312,2.0354,2.04,2.0472,2.0462,2.0494,2.0504,2.054,2.0602,2.0525,2.0526,2.0536,2.0686,2.0692,2.0704,2.0601,2.0603,2.0605,2.0681,0,2.0055,2.0152,2.0168,2.0253,2.03,2.0302,2.0349,2.0386,2.0407,2.045,2.0473,2.0523,2.0507,2.0526,2.0562,2.0587,2.0632,2.0582,2.0643,2.0645,2.0629,2.0718,2.0725,2.0795,2.0692,2.0694,2.0695,0,2.0157,2.02,2.029,2.0334,2.0354,2.0397,2.0446,2.0488,2.053,2.0542,2.0577,2.0582,2.0639,2.0611,2.0689,2.0655,2.0681,2.0697,2.07,2.0705,2.0672,2.0723,2.0818,2.0828,2.0711,2.071,2.0709,0,2.0206,2.0287,2.0351,2.0373,2.0427,2.0456,2.048,2.052,2.055,2.0594,2.0613,2.0664,2.069,2.0729,2.0748,2.0726,2.0824,2.0798,2.0835,2.0834,2.0854,2.0852,2.0953,2.0875,2.0874,2.0874,2.0874,0,2.0288,2.0342,2.0373,2.0412,2.0473,2.049,2.055,2.0573,2.0608,2.0652,2.0657,2.0697,2.0721,2.0765,2.0781,2.0842,2.0855,2.0865,2.0868,2.0864,2.0862,2.088,2.0874,2.0877,2.0876,2.0876,2.0875,0,2.0352,2.0376,2.0444,2.049,2.0502,2.0545,2.0583,2.0621,2.0641,2.0696,2.071,2.0741,2.0793,2.0816,2.0881,2.0891,2.0961,2.0961,2.0946,2.0946,2.0981,2.0977,2.1095,2.1111,2.1024,2.1025,2.1026,0,2.0402,2.0443,2.0493,2.0522,2.0546,2.0593,2.0624,2.0643,2.0675,2.0725,2.0757,2.0809,2.0851,2.0934,2.0963,2.1012,2.1013,2.1051,2.102,2.1013,2.101,2.1007,2.101,2.1055,2.1056,2.1057,2.1058,0,2.0487,2.0496,2.054,2.0588,2.0625,2.0664,2.0702,2.0725,2.0751,2.0786,2.0839,2.0872,2.0937,2.0988,2.1039,2.1063,2.1064,2.1067,2.1078,2.1072,2.1061,2.1065,2.0959,2.1064,2.1063,2.1063,2.1063,2.1062,2.0544,2.058,2.062,2.0668,2.0699,2.0734,2.0771,2.0796,2.084,2.0894,2.0903,2.0959,2.0999,2.1067,2.1094,2.1138,2.1129,2.1145,2.1148,2.1151,2.1152,2.1055,2.1147,2.1147,2.1147,2.1147,2.1147,0,2.0626,2.0652,2.0697,2.075,2.0788,2.0786,2.0828,2.086,2.0908,2.0946,2.0987,2.1047,2.1096,2.1129,2.1179,2.1208,2.1209,2.122,2.1217,2.1222,2.1159,2.1143,2.1218,2.1218,2.1218,2.1218,2.1218,2.1218,2.0674,2.0734,2.0749,2.0824,2.085,2.0904,2.0928,2.096,2.099,2.1056,2.1097,2.1118,2.1154,2.1206,2.1251,2.1259,2.1277,2.1287,2.1295,2.1235,2.1227,2.122,2.1205,2.1292,2.1292,2.1355,2.1355,2.1356]},{"header":{"parameterUnit":"m.s-1","parameterCategory":1,"la1":30.2991,"la2":30.254,"lo1":-89.0895,"lo2":-89.0444,"dy":0.0017,"dx":0.0017,"nx":28,"ny":28,"refTime":"2024-07-30T03:00:00:Z","depth":0,"parameterNumber":3,"parameterNumberName":"V-component_of_WINDS"},"data":[0,0,0,0,0,0,0,0,0,0,0,0,0,0,0,0,0,0,0,0,0,0,0,0,0,0,0,0,0,0,0,0,0,0,0,0,0,0,0,0,0,0,0,0,0,0,0,0,0,0,0,0,0,0,0,0,0,0,4.6752,4.6752,0,4.6756,4.6756,4.6756,4.6725,4.6724,4.6723,4.6722,4.6725,4.6726,4.6727,0,0,0,0,0,0,0,0,0,0,0,0,0,4.6714,4.6715,4.6752,4.6752,4.6752,4.6756,4.6756,4.6756,4.6725,4.6724,4.6723,4.6722,4.6725,4.6726,4.6727,0,0,0,0,0,0,0,0,0,0,0,0,0,4.6726,4.6716,4.6751,4.6737,4.6735,4.6756,4.6756,4.6756,4.6725,4.6724,4.6722,4.6721,4.6724,4.6726,4.6727,4.6762,0,0,4.6731,4.6732,0,0,0,0,0,0,0,0,4.6725,4.6727,4.6739,4.6738,4.6736,4.6738,4.6744,4.6758,4.6725,4.6729,4.6722,4.672,4.6731,4.6731,4.6735,4.6762,4.6762,4.6731,4.6732,4.6733,4.6733,0,0,0,0,0,0,0,4.6725,4.6727,4.6753,4.6739,4.6737,4.6729,4.6729,4.6746,4.6737,4.6728,4.6726,4.6727,4.673,4.6734,4.6735,4.6762,4.6731,4.6733,4.6733,4.6734,4.6816,4.6817,0,0,0,0,0,0,4.6726,4.6726,4.6753,4.6753,4.6727,4.6731,4.6731,4.6739,4.6737,4.6735,4.6728,4.6726,4.6732,4.6733,4.6735,4.6774,4.6733,4.6734,4.6735,4.6815,4.6816,4.6818,0,0,0,0,0,0,4.6725,4.6729,4.6753,4.6739,4.6742,4.6733,4.6742,4.674,4.6744,4.6737,4.6735,4.6734,4.6731,4.6733,4.6755,4.6774,4.6735,4.6736,4.6813,4.6815,4.6817,4.6853,0,0,0,0,0,0,4.6724,4.6729,4.6742,4.674,4.6743,4.6774,4.6743,4.6741,4.6746,4.6743,4.6742,4.674,4.673,4.6753,4.6756,4.6775,4.6737,4.6811,4.6814,4.6817,4.685,4.6856,4.6861,0,0,0,0,0,4.6723,4.6752,4.6743,4.6746,4.6759,4.6775,4.6776,4.6764,4.6748,4.6761,4.6756,4.674,4.6771,4.6756,4.6759,4.6778,4.681,4.6813,4.6816,4.6848,4.6855,4.6861,0,0,0,0,0,0,4.6756,4.6751,4.6741,4.677,4.6773,4.6769,4.6786,4.6773,4.678,4.6776,4.6761,4.6761,4.6785,4.6784,4.6767,4.6811,4.6788,4.6792,4.6811,4.6817,4.6823,4.6822,4.6738,0,0,0,0,0,4.6767,4.6781,4.6776,4.6802,4.6804,4.6795,4.6801,4.6792,4.6794,4.6795,4.6791,4.6794,4.6804,4.6811,4.682,4.685,4.6849,4.6865,4.6871,4.6875,4.6878,4.6893,4.69,4.6828,4.6828,4.6828,0,0,4.6789,4.6788,4.6798,4.6808,4.6809,4.6823,4.6796,4.6811,4.6821,4.6797,4.6817,4.6815,4.6817,4.6843,4.6854,4.6842,4.6898,4.6879,4.6883,4.6883,4.6897,4.6904,4.691,4.683,4.683,4.6829,0,0,4.6836,4.6838,4.6859,4.6861,4.6863,4.6856,4.6862,4.686,4.6857,4.6878,4.686,4.6871,4.6889,4.689,4.6893,4.6941,4.6926,4.6944,4.6973,4.6987,4.6993,4.6998,4.7014,4.702,4.6948,4.6948,4.6948,0,4.6863,4.6884,4.6871,4.6888,4.6893,4.6872,4.6893,4.6895,4.69,4.6903,4.689,4.6912,4.6912,4.6937,4.6949,4.6953,4.6957,4.6944,4.6993,4.6998,4.7003,4.7017,4.7023,4.695,4.695,4.695,4.6949,0,4.6916,4.693,4.6947,4.6952,4.6959,4.6978,4.6968,4.6976,4.6966,4.6961,4.6982,4.6981,4.6989,4.6994,4.6985,4.7019,4.7011,4.6996,4.6972,4.7012,4.7025,4.7031,4.6953,4.6952,4.6952,4.6951,0,0,4.6983,4.6982,4.6988,4.699,4.699,4.7001,4.7018,4.7027,4.7033,4.7037,4.7051,4.7067,4.7053,4.7056,4.7047,4.706,4.7096,4.7043,4.7043,4.7052,4.7132,4.7142,4.7149,4.7087,4.7088,4.7089,4.7131,0,4.7028,4.7058,4.7048,4.7078,4.709,4.7071,4.7086,4.7087,4.7083,4.7093,4.7088,4.7099,4.708,4.7082,4.7094,4.7089,4.7112,4.7086,4.7098,4.7099,4.7097,4.7156,4.7167,4.7207,4.7136,4.7137,4.7138,0,4.7084,4.7091,4.7122,4.712,4.7125,4.7139,4.7145,4.7154,4.7156,4.7152,4.7156,4.7143,4.716,4.7137,4.7159,4.7142,4.7146,4.7144,4.7146,4.7145,4.712,4.7156,4.722,4.7225,4.7147,4.7146,4.7145,0,4.7128,4.7145,4.7166,4.7168,4.7166,4.7176,4.7176,4.7176,4.7182,4.7187,4.719,4.7197,4.7201,4.7207,4.7196,4.7181,4.7219,4.7196,4.7215,4.7215,4.7223,4.7222,4.7287,4.7228,4.7228,4.7228,4.7228,0,4.7178,4.7198,4.7185,4.7198,4.7219,4.7207,4.7228,4.7226,4.7226,4.7237,4.7221,4.7232,4.7218,4.7228,4.722,4.7238,4.7241,4.7237,4.7234,4.7238,4.7238,4.7239,4.7236,4.723,4.7229,4.7229,4.7229,0,4.7231,4.7223,4.7244,4.7241,4.7241,4.7256,4.7253,4.7265,4.7259,4.7274,4.7277,4.7268,4.7278,4.7269,4.7279,4.7274,4.7298,4.7292,4.7297,4.7295,4.7315,4.7313,4.7382,4.739,4.7327,4.7327,4.7328,0,4.7262,4.7277,4.7276,4.7282,4.7283,4.7294,4.7299,4.7288,4.7294,4.7296,4.7307,4.7316,4.7322,4.734,4.7334,4.7341,4.7335,4.7358,4.7335,4.7338,4.7333,4.7332,4.7333,4.7362,4.7363,4.7364,4.7364,0,4.7319,4.7315,4.7323,4.733,4.7337,4.7342,4.7346,4.7352,4.734,4.7348,4.7358,4.7363,4.7373,4.7382,4.7387,4.7386,4.7373,4.7372,4.7376,4.7379,4.7381,4.7379,4.7309,4.737,4.7369,4.7369,4.7369,4.7368,4.7361,4.7373,4.7374,4.7383,4.7385,4.7389,4.7399,4.7395,4.7404,4.7411,4.7404,4.7416,4.7417,4.7423,4.7424,4.7433,4.7423,4.743,4.7431,4.7433,4.7435,4.7381,4.7434,4.7434,4.7433,4.7433,4.7433,0,4.7416,4.7415,4.7425,4.743,4.7438,4.7426,4.7429,4.7436,4.7447,4.7449,4.7456,4.7467,4.7476,4.7471,4.7478,4.7486,4.748,4.7488,4.7487,4.7487,4.7444,4.7439,4.7493,4.7493,4.7493,4.7493,4.7493,4.7493,4.7445,4.7464,4.746,4.7479,4.7478,4.749,4.7493,4.7497,4.7498,4.7512,4.7519,4.7516,4.7515,4.7522,4.7529,4.7527,4.753,4.754,4.7536,4.7496,4.749,4.7484,4.7479,4.7541,4.7541,4.7578,4.7578,4.7579]}]]